Location: Overspoor
(51.4747°N, 5.6641°E)
Time: 22:24:23
(UTC+02:00)

NANOSAT C BR1 - Pass Details

Date: 08 July 2022
Orbit: 584 x 599 km, 98.0° (Epoch: 08 August)

Event Time Altitude Azimuth Distance (km) Brightness Sun altitude
Rises 02:35:15 0° 29° (NNE) 2,856 ? -15.1°
Reaches altitude 10° 02:38:18 10° 53° (NE) 1,949 ? -15.0°
Maximum altitude 02:40:46 15° 89° (E) 1,642 ? -14.9°
Drops below altitude 10° 02:43:12 10° 124° (SE) 1,942 ? -14.8°
Enters shadow 02:44:23 - 136° (SE) 2,251 ? -14.8°
